OUFTI-1

Last updated on Fri Feb 16 2018 09:50:03 GMT+0000 (Coordinated Universal Time)

1 41458U 16025C 18047.19021518 .00000520 00000-0 31774-4 0 9996 2 41458 98.1511 103.5093 0170957 192.7339 166.9555 15.04237656 99243
UTC large
Height (km)
Speed (km/s)
/
Latitude / Longitude
Inclination (degrees)
Orbital Period (minutes)
Azimuth
Elevation
Range (km)
Doppler Factor

Next 0 passes for location: London (51.5072 / 0.1276)

Sorry there are no passes over London.